Powrót do katalogu

STARLINK-30289

AktywnyŁącznośćVLEO
NORAD 57653·PAYLOAD·🇺🇸 United States

Wystrzelony Aug 17, 2023 z Cape Canaveral Space Force Station

Loading…

Następne Przeloty (najbliższe 24 godziny)

TLE

ŚwieżeSource: CelesTrak SupGP

Epoka: Sep 15, 2026, 01:58 UTC

1 57653C 23122X   26258.08243056  .00013580  00000+0  49176-3 0  2581
2 57653  43.0027  92.2606 0001490 267.7188 223.5982 15.27578594    17

Śledź STARLINK-30289 w czasie rzeczywistym z AllMySat

Download on the App Store